RH
55 55 62 67 67 80 80 85 92 98 95 85 69 64 70 74 75 66 68 59 46 47 45 52 57 57 45
66 80 92 96 90 95 91 92 91 83 71 70 76 67 81 89 66 62 54 52 51 61 53 62 60 57 47
88 84 80 72 74 76 75 77 69 61 73 80 67 79 94 82 71 48 52 50 58 61 61 61 67 50 52
71 74 77 82 81 73 66 59 72 81 79 78 86 90 84 59 52 49 58 66 68 71 69 79 65 54 63
55 58 61 66 76 86 84 79 71 69 76 85 91 78 74 64 55 56 75 83 84 83 85 80 62 59 65
45 52 59 59 61 65 68 69 73 89 94 88 84 90 81 68 68 76 96 96 89 98 82 71 62 66 66
42 38 39 41 56 75 88 91 88 96 100 97 100 88 87 98 96 99 100 90 98 84 80 74 72 68 63
62 60 61 74 86 98 100 98 100 97 100 100 100 100 100 100 100 88 100 96 92 79 82 67 76 76 72
81 88 91 100 98 100 95 100 100 100 100 100 100 100 100 100 100 98 100 100 85 83 80 80 83 79 86
75 83 83 91 96 99 100 100 100 100 100 100 100 100 100 100 100 100 100 89 84 79 83 85 90 84 91
99 100 100 100 97 95 100 100 100 100 100 100 100 100 100 100 100 100 93 83 79 90 97 88 78 92 93
82 87 91 95 93 98 100 100 100 100 100 100 100 100 100 100 100 100 100 98 100 100 91 83 90 92 88
84 91 95 93 99 100 100 100 99 100 100 100 100 100 100 100 100 100 100 97 100 96 96 89 91 84 69
99 96 97 96 100 100 100 100 100 100 100 100 100 100 100 100 100 100 100 100 100 100 96 87 80 76 57
86 83 90 84 93 100 100 100 100 98 100 100 100 100 100 100 100 100 100 100 100 93 91 75 74 56 55
95 98 96 97 99 100 100 96 100 100 100 100 100 100 100 100 100 100 100 98 92 91 77 79 69 64 58
95 90 94 93 94 99 100 100 100 100 100 100 100 100 91 100 100 91 93 87 77 82 81 62 49 67 51
Wind_Speed
51 53 54 56 58 60 63 64 67 71 75 79 81 83 82 88 92 91 94 97 102 106 111 114 118 121 128
54 55 57 59 61 64 67 70 73 76 79 81 80 82 86 92 92 93 96 99 104 109 113 116 120 126 130
57 59 61 64 66 69 73 75 78 80 80 80 84 88 92 93 95 96 99 103 107 113 116 120 123 130 132
63 65 67 71 73 74 77 77 78 78 79 85 87 92 94 96 97 101 102 107 113 117 119 122 127 132 133
66 68 70 71 74 74 77 79 80 83 85 88 92 93 95 98 99 101 104 111 116 118 122 126 131 132 135
68 70 72 74 76 78 81 84 84 86 91 92 94 96 98 101 102 104 108 115 118 119 124 129 131 134 137
73 75 76 78 80 83 84 86 88 91 93 95 96 98 100 102 105 109 113 117 118 121 127 129 131 137 137
77 77 80 82 83 85 87 89 91 92 94 95 97 99 101 106 109 115 116 118 120 126 127 130 134 136 138
82 81 83 85 86 88 88 90 92 94 94 95 100 103 106 109 112 115 118 121 125 126 129 132 135 136 137
84 85 87 86 88 88 89 89 92 94 96 99 103 107 110 111 113 117 120 122 125 126 131 134 136 135 137
85 86 88 89 89 89 89 91 94 96 99 102 105 109 109 112 115 117 121 124 126 128 131 133 133 134 135
90 90 91 92 91 92 94 94 97 100 103 105 108 109 113 117 119 121 123 126 129 130 130 132 132 133 131
94 93 95 96 95 97 96 100 103 104 104 109 113 116 117 119 122 124 126 128 129 131 129 131 130 130 125
99 99 100 100 100 101 103 104 107 108 108 114 116 118 121 122 125 127 129 129 131 129 129 129 128 122 119
107 106 106 106 106 106 107 110 111 113 116 117 118 123 125 126 126 127 130 131 127 129 129 125 122 116 115
111 110 110 110 111 110 112 113 114 117 118 122 126 129 127 126 128 130 128 126 127 125 126 120 116 115 114
114 113 113 112 112 113 115 115 120 123 122 124 127 128 126 128 127 128 126 124 123 118 117 113 114 113 110
Wind_Direction
286 288 289 291 291 294 295 297 298 299 300 303 305 307 309 310 311 313 315 316 316 318 319 321 322 324 326
288 290 291 292 293 295 296 297 298 300 302 304 307 308 308 309 312 316 315 315 317 318 319 320 322 325 327
289 290 291 293 293 295 296 298 299 301 304 306 306 306 309 311 314 314 314 316 317 320 320 321 323 326 328
288 289 291 292 294 295 297 299 300 302 302 303 306 308 311 311 312 315 316 316 319 319 321 322 324 327 328
289 291 292 293 294 296 297 298 300 302 303 306 307 309 310 311 313 315 316 317 318 319 321 323 324 326 328
289 290 291 293 295 296 298 299 301 301 305 306 307 309 310 312 314 316 316 317 319 319 321 322 325 326 328
288 289 292 293 294 295 297 299 300 303 304 306 308 309 312 313 314 315 315 318 318 319 322 323 325 327 328
289 291 291 291 292 294 296 299 301 302 305 306 307 309 311 312 313 315 316 316 317 319 320 323 325 326 329
287 288 289 291 293 295 297 299 301 302 303 307 308 309 310 311 313 314 314 316 317 319 321 322 325 325 327
287 289 291 292 294 296 298 299 300 302 305 306 306 307 309 311 312 313 314 314 317 319 321 322 323 326 325
288 289 291 293 294 295 297 298 301 302 303 303 304 306 309 309 310 311 314 315 317 319 319 320 323 323 325
287 288 289 290 292 294 294 296 298 300 301 302 303 304 305 307 309 311 314 316 316 316 318 320 321 323 324
285 287 287 289 290 291 292 293 297 299 300 301 301 304 306 307 310 311 312 313 315 315 317 317 320 321 322
284 285 287 289 290 290 290 293 296 298 299 300 303 304 306 308 307 309 309 312 312 313 314 318 318 320 322
285 286 287 288 290 290 291 293 296 299 300 300 302 304 304 304 307 307 308 310 311 312 314 316 318 320 323
284 285 288 288 288 290 290 293 297 296 298 299 300 302 303 303 303 304 305 307 308 309 313 314 316 321 322
282 285 287 288 288 290 290 291 293 296 295 296 298 299 300 301 301 302 302 305 306 310 310 312 316 320 321